EN

Hourly Weather Zhuravlevka

Today, 2 October, Friday

Time Temperature Precipitation Wind Pressure Humidity
00:00 +13°C° 0 mm 3 mps 765 mmHg 62%
01:00 +12°C° 0 mm 3 mps 765 mmHg 63%
02:00 +12°C° 0 mm 3 mps 766 mmHg 64%
03:00 +12°C° 0 mm 3 mps 766 mmHg 65%
04:00 +11°C° 0 mm 3 mps 766 mmHg 65%
05:00 +11°C° 0 mm 3 mps 766 mmHg 65%
06:00 +11°C° 0 mm 3 mps 766 mmHg 65%
07:00 +13°C° 0 mm 4 mps 766 mmHg 57%
08:00 +14°C° 0 mm 4 mps 766 mmHg 50%
09:00 +17°C° 0 mm 4 mps 766 mmHg 42%
10:00 +19°C° 0 mm 5 mps 766 mmHg 38%
11:00 +20°C° 0 mm 5 mps 766 mmHg 33%
12:00 +22°C° 0 mm 5 mps 766 mmHg 29%
13:00 +22°C° 0 mm 5 mps 766 mmHg 29%
14:00 +22°C° 0 mm 5 mps 765 mmHg 28%
15:00 +22°C° 0 mm 4 mps 765 mmHg 28%
16:00 +20°C° 0 mm 4 mps 765 mmHg 31%
17:00 +19°C° 0 mm 3 mps 765 mmHg 34%
18:00 +17°C° 0 mm 3 mps 765 mmHg 38%
19:00 +16°C° 0 mm 3 mps 765 mmHg 39%
20:00 +16°C° 0 mm 3 mps 766 mmHg 41%
21:00 +14°C° 0 mm 3 mps 766 mmHg 43%
22:00 +13°C° 0 mm 3 mps 766 mmHg 44%
23:00 +13°C° 0 mm 3 mps 766 mmHg 46%

Tomorrow, 3 October, Saturday

Time Temperature Precipitation Wind Pressure Humidity
00:00 +12°C° 0 mm 3 mps 766 mmHg 47%
01:00 +12°C° 0 mm 3 mps 766 mmHg 48%
02:00 +12°C° 0 mm 3 mps 766 mmHg 49%
03:00 +11°C° 0 mm 3 mps 766 mmHg 50%
04:00 +12°C° 0 mm 2 mps 766 mmHg 52%
05:00 +12°C° 0 mm 2 mps 766 mmHg 54%
06:00 +10°C° 0 mm 2 mps 766 mmHg 56%
07:00 +12°C° 0 mm 3 mps 767 mmHg 51%
08:00 +14°C° 0 mm 3 mps 767 mmHg 46%
09:00 +17°C° 0 mm 3 mps 767 mmHg 41%
10:00 +18°C° 0 mm 3 mps 767 mmHg 38%
11:00 +20°C° 0 mm 3 mps 767 mmHg 35%
12:00 +21°C° 0 mm 3 mps 766 mmHg 32%
13:00 +21°C° 0 mm 3 mps 766 mmHg 31%
14:00 +21°C° 0 mm 3 mps 766 mmHg 31%
15:00 +22°C° 0 mm 3 mps 766 mmHg 31%
16:00 +20°C° 0 mm 2 mps 766 mmHg 35%
17:00 +18°C° 0 mm 2 mps 766 mmHg 39%
18:00 +18°C° 0 mm 1 mps 766 mmHg 43%
19:00 +16°C° 0 mm 1 mps 766 mmHg 46%
20:00 +16°C° 0 mm 2 mps 766 mmHg 48%
21:00 +15°C° 0 mm 2 mps 766 mmHg 51%
22:00 +15°C° 0 mm 2 mps 766 mmHg 56%
23:00 +15°C° 0 mm 2 mps 766 mmHg 60%

Day after tomorrow, 4 October, Sunday

Time Temperature Precipitation Wind Pressure Humidity
00:00 +14°C° 0 mm 2 mps 766 mmHg 64%
01:00 +14°C° 0 mm 2 mps 766 mmHg 66%
02:00 +14°C° 0 mm 2 mps 766 mmHg 68%
03:00 +13°C° 0 mm 2 mps 766 mmHg 70%
04:00 +13°C° 0 mm 2 mps 767 mmHg 71%
05:00 +13°C° 0 mm 2 mps 767 mmHg 72%
06:00 +12°C° 0 mm 2 mps 767 mmHg 74%
07:00 +13°C° 0 mm 3 mps 767 mmHg 69%
08:00 +14°C° 0 mm 3 mps 767 mmHg 63%
09:00 +17°C° 0 mm 3 mps 767 mmHg 58%
10:00 +18°C° 0 mm 3 mps 767 mmHg 54%
11:00 +19°C° 0 mm 3 mps 767 mmHg 50%
12:00 +20°C° 0 mm 4 mps 767 mmHg 46%
13:00 +20°C° 0 mm 4 mps 767 mmHg 45%
14:00 +20°C° 0 mm 3 mps 767 mmHg 43%
15:00 +20°C° 0 mm 3 mps 767 mmHg 42%
16:00 +19°C° 0 mm 3 mps 767 mmHg 45%
17:00 +17°C° 0 mm 3 mps 767 mmHg 48%
18:00 +16°C° 0 mm 3 mps 767 mmHg 51%
19:00 +14°C° 0 mm 3 mps 767 mmHg 55%
20:00 +13°C° 0 mm 4 mps 767 mmHg 58%
21:00 +12°C° 0 mm 4 mps 768 mmHg 62%
22:00 +12°C° 0 mm 4 mps 768 mmHg 66%
23:00 +11°C° 0 mm 3 mps 768 mmHg 69%

5 October, Monday

Time Temperature Precipitation Wind Pressure Humidity
00:00 +10°C° 0 mm 3 mps 768 mmHg 73%
01:00 +10°C° 0 mm 3 mps 768 mmHg 74%
02:00 +9°C° 0 mm 3 mps 768 mmHg 74%
03:00 +9°C° 0 mm 3 mps 768 mmHg 75%
04:00 +8°C° 0 mm 3 mps 769 mmHg 73%
05:00 +8°C° 0 mm 3 mps 769 mmHg 72%
06:00 +7°C° 0 mm 3 mps 769 mmHg 70%
07:00 +9°C° 0 mm 3 mps 769 mmHg 62%
08:00 +10°C° 0 mm 4 mps 769 mmHg 55%
09:00 +11°C° 0 mm 4 mps 770 mmHg 48%
10:00 +13°C° 0 mm 4 mps 770 mmHg 44%
11:00 +14°C° 0 mm 3 mps 770 mmHg 40%
12:00 +16°C° 0 mm 3 mps 770 mmHg 36%
13:00 +16°C° 0 mm 3 mps 769 mmHg 33%
14:00 +16°C° 0 mm 3 mps 769 mmHg 31%
15:00 +17°C° 0 mm 3 mps 769 mmHg 28%
16:00 +14°C° 0 mm 3 mps 769 mmHg 31%
17:00 +12°C° 0 mm 3 mps 769 mmHg 33%
18:00 +12°C° 0 mm 2 mps 769 mmHg 36%
19:00 +10°C° 0 mm 2 mps 769 mmHg 37%
20:00 +9°C° 0 mm 2 mps 769 mmHg 38%
21:00 +9°C° 0 mm 2 mps 769 mmHg 39%
22:00 +8°C° 0 mm 2 mps 769 mmHg 41%
23:00 +8°C° 0 mm 2 mps 769 mmHg 44%

6 October, Tuesday

Time Temperature Precipitation Wind Pressure Humidity
00:00 +7°C° 0 mm 2 mps 769 mmHg 46%
01:00 +7°C° 0 mm 2 mps 769 mmHg 50%
02:00 +7°C° 0 mm 2 mps 769 mmHg 53%
03:00 +6°C° 0 mm 2 mps 769 mmHg 56%
04:00 +7°C° 0 mm 1 mps 769 mmHg 59%
05:00 +7°C° 0 mm 1 mps 769 mmHg 63%
06:00 +7°C° 0 mm 1 mps 769 mmHg 66%
07:00 +9°C° 0 mm 1 mps 769 mmHg 62%
08:00 +10°C° 0 mm 1 mps 769 mmHg 57%
09:00 +12°C° 0 mm 1 mps 769 mmHg 53%
10:00 +13°C° 0 mm 1 mps 769 mmHg 49%
11:00 +14°C° 0 mm 0 mps 768 mmHg 44%
12:00 +15°C° 0 mm 0 mps 768 mmHg 40%
13:00 +15°C° 0 mm 0 mps 768 mmHg 38%
14:00 +18°C° 0 mm 1 mps 768 mmHg 36%
15:00 +18°C° 0 mm 1 mps 767 mmHg 34%
16:00 +16°C° 0 mm 1 mps 767 mmHg 36%
17:00 +14°C° 0 mm 0 mps 767 mmHg 38%
18:00 +13°C° 0 mm 0 mps 766 mmHg 40%
19:00 +13°C° 0 mm 1 mps 766 mmHg 40%
20:00 +12°C° 0 mm 1 mps 766 mmHg 40%
21:00 +12°C° 0 mm 1 mps 766 mmHg 40%
22:00 +11°C° 0 mm 1 mps 766 mmHg 41%
23:00 +10°C° 0 mm 0 mps 766 mmHg 42%

7 October, Wednesday

Time Temperature Precipitation Wind Pressure Humidity
00:00 +9°C° 0 mm 0 mps 766 mmHg 42%
01:00 +9°C° 0 mm 0 mps 766 mmHg 43%
02:00 +10°C° 0 mm 1 mps 765 mmHg 44%
03:00 +9°C° 0 mm 1 mps 765 mmHg 44%
04:00 +9°C° 0 mm 1 mps 765 mmHg 43%
05:00 +10°C° 0 mm 1 mps 765 mmHg 42%
06:00 +10°C° 0 mm 1 mps 765 mmHg 41%
07:00 +11°C° 0 mm 1 mps 765 mmHg 39%
08:00 +12°C° 0 mm 1 mps 765 mmHg 37%
09:00 +13°C° 0 mm 2 mps 765 mmHg 35%
10:00 +15°C° 0 mm 2 mps 765 mmHg 32%
11:00 +17°C° 0 mm 2 mps 765 mmHg 30%
12:00 +19°C° 0 mm 3 mps 765 mmHg 27%
13:00 +20°C° 0 mm 3 mps 765 mmHg 27%
14:00 +20°C° 0 mm 3 mps 764 mmHg 27%
15:00 +20°C° 0 mm 3 mps 764 mmHg 26%
16:00 +19°C° 0 mm 3 mps 764 mmHg 30%
17:00 +17°C° 0 mm 2 mps 764 mmHg 34%
18:00 +15°C° 0 mm 2 mps 764 mmHg 38%
19:00 +15°C° 0 mm 2 mps 764 mmHg 39%
20:00 +14°C° 0 mm 2 mps 764 mmHg 39%
21:00 +14°C° 0 mm 2 mps 764 mmHg 40%
22:00 +14°C° 0 mm 2 mps 764 mmHg 43%
23:00 +13°C° 0 mm 2 mps 764 mmHg 46%
Show more

We Need Your Consent

Meteoprog and our Service Providers may store and access personal data such as cookies, device identifiers or other similar technologies on your device and process such data to personalise content and ads, as well as provide social media features and to analyse the traffic.

  • Store and/or access information on your device

    Cookies, device identifiers or other information can be stored or accessed on your device for the purposes indicated above.

  • Personalised ads and content, ad and content measurement, audience insights, and products development

    Ads and content can be personalised based on a profile. More data can be added to better personalise ads and content. Ad and content performance can be measured. Insights about the audience who saw the ads and content can be derived. Such data can be used to develop or improve user’s experience, systems and software.

By clicking ‘I Agree’ you will allow the use of indicated cookies, device identifiers, web beacons or other similar technologies. Your settings can be changed in the browser on your device.

For certain purposes, legitimate interests may be relied on, rather than consent. You can read more about this in our Privacy and Cookie Policy.